CYGFM01 (41887 NORAD) Tracking and Keplerian Element Data

This shows tracking and keplerian element data for the satellite.

Feedback or suggestion? Click here.




ElementValue
Catalog41887
NameCYGFM01
Epoch Orbit32020
Epoch Day269.50732784
Epoch Year2022
RAAN294.8071
Inclination34.9528
Eccentricity0.0015978
Argument of Perigee274.804
Mean Anonmoly85.0847
Mean Motion15.16611857
Decay Rate3.137E-05
L11 41887U 16078D 22269.50732784 .00003137 00000+0 15799-3 0 9994
L22 41887 34.9528 294.8071 0015978 274.8040 85.0847 15.16611857320207

Live tracking and technical data element details for CYGFM01 (NORAD 41887). CYGFM01 can be tracked NOW for your location showing map with azimuth and elevation plus other details from your city location.

Track the satellite on the map from your city or location and see movement details for azimuth, elevation, latitude, longitude, range, height, and movement on the map or in text.







IsCatalogInMostPopularTable: catalog: 41887, numindb: 693
Update: records affected: 1



GetName: 41887 CYGFM01

Hit Count: updated at: Wed, 05 Oct 2022 10:07:06 GMT